CW9663 Weather Reports


Display with metric or nautical units.
time (UTC)temp
F
wind
direction
speed
MPH
gust
MPH
rain 1hr
in
rain 24hr
in
rain mn
in
humidity
%
barometer
mb
20180919123837 68 46 4.0 9.0 0.00 0.01 0.01 93 1015.5
20180919123351 68 13 5.0 9.0 0.00 0.01 0.01 94 1015.6
20180919122852 68 29 4.0 9.0 0.00 0.01 0.01 95 1015.6
20180919122339 67 14 3.0 8.0 0.00 0.01 0.01 95 1015.6
20180919121837 67 5 5.0 8.0 0.00 0.01 0.01 95 1015.5
20180919121347 67 5 5.0 7.0 0.00 0.01 0.01 96 1015.5
20180919120834 67 18 6.0 7.0 0.00 0.01 0.01 96 1015.5
20180919120344 67 35 4.0 7.0 0.00 0.01 0.01 96 1015.5
20180919115845 67 22 5.0 7.0 0.00 0.01 0.01 96 1015.5
20180919115352 66 28 4.0 6.0 0.00 0.01 0.01 97 1015.4
20180919114845 66 14 4.0 5.0 0.00 0.01 0.01 97 1015.4
20180919114338 66 5 4.0 5.0 0.00 0.01 0.01 97 1015.3
20180919113836 66 11 2.0 5.0 0.00 0.01 0.01 97 1015.3
20180919113345 66 355 0.0 0.0 0.00 0.01 0.01 97 1015.2
20180919112850 66 9 0.0 0.0 0.00 0.01 0.01 97 1015.1
20180919112340 66 355 0.0 0.0 0.00 0.01 0.01 97 1015.1
20180919111842 65 337 0.0 0.0 0.00 0.01 0.01 97 1015.1
20180919111352 65 326 0.0 0.0 0.00 0.01 0.01 97 1015.1
20180919110832 65 355 0.0 0.0 0.00 0.01 0.01 97 1015.1
20180919110349 65 348 0.0 0.0 0.00 0.01 0.01 97 1015.0
20180919105833 65 350 0.0 0.0 0.00 0.01 0.01 96 1014.9
20180919105342 65 350 0.0 0.0 0.00 0.01 0.01 97 1014.8
20180919104837 65 350 0.0 2.0 0.00 0.01 0.01 97 1014.9
20180919104345 65 350 0.0 3.0 0.00 0.01 0.01 97 1014.9
20180919103852 65 355 1.0 3.0 0.00 0.01 0.01 97 1014.7
20180919103344 66 360 0.0 0.0 0.00 0.01 0.01 97 1014.7
20180919102844 66 360 0.0 0.0 0.00 0.01 0.01 97 1014.7
20180919102351 65 360 0.0 0.0 0.00 0.01 0.01 96 1014.6
20180919101835 66 360 0.0 0.0 0.00 0.01 0.01 96 1014.7
20180919101346 66 360 0.0 0.0 0.00 0.01 0.01 96 1014.7
20180919100849 66 360 0.0 0.0 0.00 0.01 0.01 96 1014.7
20180919100344 66 360 0.0 0.0 0.00 0.01 0.01 96 1014.7
20180919095847 66 360 0.0 0.0 0.00 0.01 0.01 95 1014.6
20180919095337 67 360 0.0 0.0 0.00 0.01 0.01 96 1014.6
20180919094837 67 360 0.0 0.0 0.00 0.01 0.01 95 1014.5
20180919094344 67 360 0.0 0.0 0.00 0.01 0.01 95 1014.5
20180919093848 67 360 0.0 2.0 0.00 0.01 0.01 95 1014.6
20180919093346 68 360 0.0 2.0 0.00 0.01 0.01 95 1014.5
20180919092851 68 360 1.0 3.0 0.00 0.01 0.01 95 1014.5
20180919092341 68 360 1.0 5.0 0.00 0.01 0.01 95 1014.4
20180919091846 68 348 2.0 5.0 0.00 0.01 0.01 95 1014.4
20180919091349 68 342 2.0 4.0 0.00 0.01 0.01 95 1014.5
20180919090835 68 336 3.0 4.0 0.00 0.01 0.01 96 1014.5
20180919090341 68 336 2.0 4.0 0.00 0.01 0.01 96 1014.5
20180919085846 68 339 2.0 6.0 0.00 0.01 0.01 96 1014.4
20180919085352 68 360 3.0 7.0 0.00 0.01 0.01 96 1014.3
20180919084837 68 329 4.0 7.0 0.00 0.01 0.01 96 1014.4
20180919084348 68 349 5.0 6.0 0.00 0.01 0.01 96 1014.2
20180919083834 68 329 5.0 6.0 0.00 0.01 0.01 96 1014.0
20180919083337 68 339 3.0 5.0 0.00 0.01 0.01 95 1013.8
20180919082842 68 105 1.0 2.0 0.00 0.01 0.01 95 1013.6
20180919082333 68 106 0.0 0.0 0.00 0.01 0.01 95 1013.5
20180919081834 68 107 0.0 3.0 0.00 0.01 0.01 95 1013.5
20180919081342 68 107 1.0 3.0 0.00 0.01 0.01 95 1013.3
20180919080844 69 105 1.0 3.0 0.00 0.01 0.01 94 1013.3
20180919080336 69 104 0.0 3.0 0.00 0.01 0.01 94 1013.3
20180919075837 69 104 1.0 4.0 0.00 0.01 0.01 94 1013.3
20180919075348 69 104 3.0 4.0 0.00 0.01 0.01 93 1013.1
20180919074847 69 44 2.0 3.0 0.00 0.01 0.01 93 1013.3
20180919074340 70 32 2.0 3.0 0.00 0.01 0.01 93 1013.5
20180919073843 70 42 1.0 3.0 0.00 0.01 0.01 93 1013.5
20180919073341 70 46 2.0 4.0 0.00 0.01 0.01 93 1013.5
20180919072845 69 10 3.0 7.0 0.00 0.01 0.01 93 1013.8
20180919072334 69 360 1.0 7.0 0.00 0.01 0.01 94 1014.0
20180919071836 69 321 5.0 9.0 0.00 0.01 0.01 94 1014.1
20180919071347 70 331 6.0 9.0 0.00 0.01 0.01 94 1014.1
20180919070851 70 318 2.0 4.0 0.00 0.01 0.01 93 1014.1
20180919070347 70 344 3.0 4.0 0.00 0.01 0.01 93 1014.0
20180919065845 70 345 0.0 6.0 0.00 0.01 0.01 93 1013.9
20180919065337 70 319 4.0 7.0 0.00 0.01 0.01 93 1013.9
20180919064838 70 360 1.0 9.0 0.00 0.01 0.01 94 1013.8
20180919064345 70 319 6.0 9.0 0.00 0.01 0.01 94 1014.0
20180919063850 70 336 0.0 5.0 0.00 0.01 0.01 94 1013.5
20180919063339 70 334 3.0 5.0 0.00 0.01 0.01 93 1013.5
20180919062842 70 329 0.0 2.0 0.01 0.01 0.01 93 1013.4
20180919062333 70 329 0.0 5.0 0.01 0.01 0.01 93 1013.4
20180919061851 70 346 3.0 5.0 0.01 0.01 0.01 92 1013.4
20180919061340 70 115 2.0 4.0 0.01 0.01 0.01 92 1013.4
20180919060845 70 117 0.0 5.0 0.01 0.01 0.01 93 1013.4
20180919060346 70 117 4.0 5.0 0.01 0.01 0.01 92 1013.3
20180919055851 71 100 3.0 5.0 0.01 0.01 0.01 91 1013.5
20180919055337 71 59 2.0 6.0 0.01 0.01 0.01 90 1013.6
20180919054838 71 36 2.0 6.0 0.01 0.01 0.01 90 1013.6
20180919054350 71 28 3.0 5.0 0.01 0.01 0.01 90 1013.6
20180919053837 71 56 2.0 6.0 0.01 0.01 0.01 90 1013.6
20180919053356 72 44 1.0 7.0 0.01 0.01 0.01 89 1013.8
20180919052835 72 346 4.0 7.0 0.00 0.00 0.00 86 1013.9
20180919052343 72 13 3.0 6.0 0.00 0.00 0.00 86 1013.8
20180919051845 72 348 4.0 11.0 0.00 0.00 0.00 85 1013.8
20180919051334 73 355 5.0 11.0 0.00 0.00 0.00 84 1013.6
20180919050841 73 5 5.0 9.0 0.00 0.00 0.00 85 1013.6
20180919050352 73 5 5.0 10.0 0.00 0.00 0.00 85 1013.6
20180919045835 72 5 5.0 10.0 0.00 0.00 0.00 85 1013.6
20180919045345 73 5 3.0 7.0 0.00 0.00 0.00 85 1013.6
20180919044850 73 43 4.0 7.0 0.00 0.00 0.00 85 1013.5
20180919044340 73 355 5.0 7.0 0.00 0.00 0.00 85 1013.5
20180919043845 73 17 4.0 5.0 0.00 0.00 0.00 86 1013.4
20180919043338 73 355 1.0 4.0 0.00 0.00 0.00 86 1013.5
20180919042842 73 348 2.0 6.0 0.00 0.00 0.00 85 1013.5
20180919042352 73 323 3.0 6.0 0.00 0.00 0.00 85 1013.4
20180919041836 73 333 2.0 5.0 0.00 0.00 0.00 84 1013.4
20180919041343 73 336 3.0 4.0 0.00 0.00 0.00 84 1013.3
20180919040847 73 355 2.0 6.0 0.00 0.00 0.00 84 1013.4
20180919040342 74 26 3.0 6.0 0.00 0.00 0.00 83 1013.3
20180919035840 74 360 4.0 6.0 0.00 0.00 0.00 83 1013.1
20180919035351 74 24 5.0 6.0 0.00 0.00 0.00 83 1013.0
20180919034850 74 355 3.0 7.0 0.00 0.00 0.00 83 1013.1
20180919034339 74 13 4.0 7.0 0.00 0.00 0.00 82 1013.2
20180919033846 74 14 5.0 6.0 0.00 0.00 0.00 82 1013.0
20180919033347 74 22 4.0 6.0 0.00 0.00 0.00 83 1013.0
20180919032849 74 15 5.0 7.0 0.00 0.00 0.00 82 1013.0
20180919032335 74 10 4.0 7.0 0.00 0.00 0.00 82 1013.1
20180919031851 74 21 3.0 6.0 0.00 0.00 0.00 82 1013.0
20180919031343 74 10 4.0 6.0 0.00 0.00 0.00 82 1013.0
20180919030845 74 20 4.0 6.0 0.00 0.00 0.00 82 1013.0
20180919030350 74 343 2.0 5.0 0.00 0.00 0.00 83 1013.1
20180919025834 74 11 1.0 5.0 0.00 0.00 0.00 82 1013.1
20180919025342 74 360 2.0 5.0 0.00 0.00 0.00 81 1013.0
20180919024844 75 5 4.0 5.0 0.00 0.00 0.00 81 1013.1
20180919024351 75 20 2.0 4.0 0.00 0.00 0.00 80 1012.8
20180919023838 75 5 3.0 5.0 0.00 0.00 0.00 80 1012.9
20180919023345 75 355 3.0 5.0 0.00 0.00 0.00 80 1012.9
20180919022846 75 32 4.0 5.0 0.00 0.00 0.00 80 1012.9
20180919022335 75 9 3.0 6.0 0.00 0.00 0.00 81 1012.8
20180919021852 75 15 3.0 6.0 0.00 0.00 0.00 81 1012.8
20180919021341 74 349 4.0 4.0 0.00 0.00 0.00 81 1012.8
20180919020850 74 12 2.0 4.0 0.00 0.00 0.00 82 1012.7
20180919020344 75 5 2.0 4.0 0.00 0.00 0.00 80 1012.7
20180919015845 75 13 2.0 4.0 0.00 0.00 0.00 81 1012.7
20180919015341 75 355 1.0 4.0 0.00 0.00 0.00 82 1012.6
20180919014840 75 350 1.0 4.0 0.00 0.00 0.00 80 1012.6
20180919014350 75 344 2.0 4.0 0.00 0.00 0.00 79 1012.7
20180919013851 75 342 0.0 3.0 0.00 0.00 0.00 79 1012.7
20180919013341 75 345 2.0 3.0 0.00 0.00 0.00 79 1012.7
20180919012838 75 345 2.0 4.0 0.00 0.00 0.00 78 1012.6
20180919012348 75 345 2.0 4.0 0.00 0.00 0.00 78 1012.5
20180919011840 75 343 3.0 4.0 0.00 0.00 0.00 78 1012.4
20180919011340 75 342 2.0 4.0 0.00 0.00 0.00 78 1012.4
20180919010841 75 344 3.0 4.0 0.00 0.00 0.00 78 1012.3
20180919010335 75 337 2.0 4.0 0.00 0.00 0.00 79 1012.3
20180919005837 75 340 3.0 4.0 0.00 0.00 0.00 78 1012.3
20180919005343 76 349 2.0 5.0 0.00 0.00 0.00 76 1012.1
20180919004837 76 348 2.0 6.0 0.00 0.00 0.00 76 1012.1
20180919004346 76 340 3.0 6.0 0.00 0.00 0.00 76 1012.1
20180919003852 77 343 3.0 6.0 0.00 0.00 0.00 74 1012.2
20180919003344 77 5 3.0 6.0 0.00 0.00 0.00 74 1012.2
20180919002840 77 355 2.0 6.0 0.00 0.00 0.00 74 1012.2
20180919002348 77 338 4.0 6.0 0.00 0.00 0.00 74 1012.2
20180919001839 77 333 4.0 6.0 0.00 0.00 0.00 73 1012.3
20180919001330 77 329 4.0 6.0 0.00 0.00 0.00 73 1012.3
20180919000852 77 336 4.0 6.0 0.00 0.00 0.00 72 1012.3
20180919000341 78 5 3.0 6.0 0.00 0.00 0.00 71 1012.4
20180918235846 78 338 3.0 5.0 0.00 0.00 0.00 71 1012.3
20180918235333 78 330 3.0 8.0 0.00 0.00 0.00 69 1012.2
20180918234833 79 341 4.0 9.0 0.00 0.00 0.00 70 1012.1
20180918234346 79 322 3.0 9.0 0.00 0.00 0.00 69 1012.2
20180918233850 79 332 5.0 7.0 0.00 0.00 0.00 69 1012.1
20180918233343 80 322 5.0 7.0 0.00 0.00 0.00 69 1012.0
20180918232846 80 330 4.0 7.0 0.00 0.00 0.00 68 1011.9
20180918232335 81 5 4.0 7.0 0.00 0.00 0.00 66 1011.7
20180918231850 81 5 3.0 9.0 0.00 0.00 0.00 66 1011.7
20180918231336 82 355 4.0 9.0 0.00 0.00 0.00 65 1011.7
20180918230839 82 348 4.0 12.0 0.00 0.00 0.00 64 1011.6
20180918230348 82 328 6.0 12.0 0.00 0.00 0.00 63 1011.5
20180918225847 83 15 6.0 10.0 0.00 0.00 0.00 63 1011.5
20180918225337 83 355 5.0 7.0 0.00 0.00 0.00 63 1011.6
20180918224835 84 348 2.0 9.0 0.00 0.00 0.00 62 1011.5
20180918224345 84 340 2.0 9.0 0.00 0.00 0.00 61 1011.5
20180918223340 84 318 4.0 6.0 0.00 0.00 0.00 60 1011.7
20180918222841 85 332 3.0 9.0 0.00 0.00 0.00 60 1011.6
20180918222333 85 348 2.0 10.0 0.00 0.00 0.00 59 1011.6
20180918221852 85 321 5.0 10.0 0.00 0.00 0.00 60 1011.6
20180918221339 85 26 3.0 10.0 0.00 0.00 0.00 60 1011.5
20180918220910 85 22 6.0 10.0 0.00 0.00 0.00 58 1011.5
20180918220348 86 339 7.0 10.0 0.00 0.00 0.00 59 1011.5
20180918215843 85 14 5.0 10.0 0.00 0.00 0.00 59 1011.5
20180918215334 85 341 3.0 9.0 0.00 0.00 0.00 60 1011.5
20180918214850 85 320 5.0 12.0 0.00 0.00 0.00 60 1011.5
20180918214337 86 360 5.0 12.0 0.00 0.00 0.00 58 1011.5
20180918213838 86 5 5.0 13.0 0.00 0.00 0.00 57 1011.6
20180918213353 86 5 6.0 13.0 0.00 0.00 0.00 57 1011.6
20180918212833 87 24 8.0 13.0 0.00 0.00 0.00 54 1011.5
20180918212344 88 32 4.0 7.0 0.00 0.00 0.00 48 1011.5
20180918211857 88 343 4.0 9.0 0.00 0.00 0.00 44 1011.5
20180918211428 89 5 6.0 9.0 0.00 0.00 0.00 43 1011.4
20180918210851 90 340 5.0 9.0 0.00 0.00 0.00 42 1011.4
20180918210158 90 329 1.0 4.0 0.00 0.00 0.00 42 1011.4
20180918205513 89 339 3.0 6.0 0.00 0.00 0.00 43 1011.5
20180918203925 89 308 2.0 4.0 0.00 0.00 0.00 44 1011.6
20180918202844 85 321 1.0 3.0 0.00 0.00 0.00 56 1011.6
20180918202332 83 5 0.0 4.0 0.00 0.00 0.00 60 1011.5
20180918201852 86 347 2.0 9.0 0.00 0.00 0.00 53 1011.6
20180918201338 86 282 3.0 9.0 0.00 0.00 0.00 47 1011.6
20180918200842 87 317 3.0 7.0 0.00 0.00 0.00 50 1011.7
20180918200338 87 311 3.0 12.0 0.00 0.00 0.00 48 1011.7
20180918195840 87 317 8.0 12.0 0.00 0.00 0.00 46 1011.7
20180918195332 89 256 6.0 11.0 0.00 0.00 0.00 43 1011.7
20180918194852 88 295 7.0 11.0 0.00 0.00 0.00 45 1011.7
20180918194338 89 287 3.0 11.0 0.00 0.00 0.00 45 1011.7
20180918193838 90 325 5.0 15.0 0.00 0.00 0.00 43 1011.7
20180918193341 89 336 8.0 15.0 0.00 0.00 0.00 45 1011.8
20180918192843 88 310 0.0 7.0 0.00 0.00 0.00 51 1011.8
20180918192352 88 307 3.0 7.0 0.00 0.00 0.00 43 1011.9
20180918191850 89 355 2.0 4.0 0.00 0.00 0.00 49 1012.0
20180918191335 88 340 0.0 7.0 0.00 0.00 0.00 53 1012.1
20180918190835 87 308 5.0 10.0 0.00 0.00 0.00 46 1012.2
20180918190331 88 285 6.0 10.0 0.00 0.00 0.00 46 1012.2
20180918185834 89 245 4.0 6.0 0.00 0.00 0.00 47 1012.3
20180918185341 90 281 4.0 10.0 0.00 0.00 0.00 44 1012.4
20180918184834 90 355 3.0 11.0 0.00 0.00 0.00 46 1012.5
20180918184343 89 297 5.0 11.0 0.00 0.00 0.00 43 1012.6
20180918183841 89 331 6.0 9.0 0.00 0.00 0.00 46 1012.6
20180918183350 88 20 5.0 10.0 0.00 0.00 0.00 47 1012.6
20180918182851 89 303 6.0 10.0 0.00 0.00 0.00 45 1012.7
20180918182342 90 319 3.0 12.0 0.00 0.00 0.00 45 1012.6
20180918181840 89 308 5.0 12.0 0.00 0.00 0.00 47 1012.6
20180918181344 89 305 2.0 10.0 0.00 0.00 0.00 44 1012.5
20180918180829 89 350 1.0 8.0 0.00 0.00 0.00 44 1012.6
20180918180346 89 320 3.0 9.0 0.00 0.00 0.00 43 1012.5
20180918175850 89 295 6.0 9.0 0.00 0.00 0.00 45 1012.5
20180918175340 89 337 6.0 9.0 0.00 0.00 0.00 44 1012.4
20180918174837 88 315 3.0 9.0 0.00 0.00 0.00 42 1012.5
20180918174342 88 271 4.0 11.0 0.00 0.00 0.00 41 1012.6
20180918173829 89 289 9.0 11.0 0.00 0.00 0.00 45 1012.7
20180918173343 88 298 5.0 9.0 0.00 0.00 0.00 52 1012.6
20180918172845 88 276 5.0 9.0 0.00 0.00 0.00 48 1012.6
20180918172338 88 246 6.0 11.0 0.00 0.00 0.00 44 1012.7
20180918171840 88 251 1.0 11.0 0.00 0.00 0.00 43 1012.8
20180918171350 88 251 6.0 10.0 0.00 0.00 0.00 50 1012.8
20180918170835 87 235 4.0 10.0 0.00 0.00 0.00 46 1012.9
20180918170348 87 319 3.0 11.0 0.00 0.00 0.00 46 1012.8
20180918165848 87 271 4.0 11.0 0.00 0.00 0.00 47 1013.0
20180918165335 87 306 5.0 11.0 0.00 0.00 0.00 50 1012.9
20180918164833 87 296 3.0 11.0 0.00 0.00 0.00 48 1013.0
20180918164342 87 304 5.0 11.0 0.00 0.00 0.00 47 1013.0
20180918163849 87 309 7.0 11.0 0.00 0.00 0.00 52 1013.1
20180918163344 87 311 8.0 11.0 0.00 0.00 0.00 49 1013.1
20180918162848 86 328 7.0 10.0 0.00 0.00 0.00 52 1013.1
20180918162334 86 346 2.0 6.0 0.00 0.00 0.00 53 1013.0
20180918161839 86 321 3.0 6.0 0.00 0.00 0.00 52 1013.0
20180918161348 86 5 2.0 9.0 0.00 0.00 0.00 55 1012.9
20180918160835 85 272 3.0 5.0 0.00 0.00 0.00 54 1012.9
20180918160353 85 261 4.0 5.0 0.00 0.00 0.00 55 1013.0
20180918155835 85 285 0.0 5.0 0.00 0.00 0.00 54 1013.1
20180918155344 85 276 1.0 6.0 0.00 0.00 0.00 56 1013.2
20180918154842 85 302 4.0 6.0 0.00 0.00 0.00 55 1013.2
20180918154351 85 355 2.0 5.0 0.00 0.00 0.00 57 1013.3
20180918153833 85 360 1.0 5.0 0.00 0.00 0.00 62 1013.3
20180918153337 84 265 4.0 6.0 0.00 0.00 0.00 61 1013.3
20180918152840 84 278 4.0 6.0 0.00 0.00 0.00 61 1013.4
20180918152350 83 306 0.0 3.0 0.00 0.00 0.00 63 1013.4
20180918151833 84 326 2.0 4.0 0.00 0.00 0.00 63 1013.6
20180918151340 83 315 0.0 4.0 0.00 0.00 0.00 65 1013.5
20180918150842 82 313 1.0 4.0 0.00 0.00 0.00 65 1013.5
20180918150335 82 273 1.0 3.0 0.00 0.00 0.00 65 1013.5
20180918145840 82 248 1.0 4.0 0.00 0.00 0.00 67 1013.7
20180918145351 81 238 0.0 4.0 0.00 0.00 0.00 68 1013.6
20180918144832 80 251 3.0 4.0 0.00 0.00 0.00 71 1013.6
20180918144341 79 35 0.0 2.0 0.00 0.00 0.00 73 1013.7
20180918143850 79 42 0.0 3.0 0.00 0.00 0.00 72 1013.7
20180918143340 79 44 1.0 3.0 0.00 0.00 0.00 73 1014.0
20180918142841 78 49 0.0 2.0 0.00 0.00 0.00 75 1013.9
20180918142333 77 49 0.0 3.0 0.00 0.00 0.00 74 1013.9
20180918141839 77 49 1.0 3.0 0.00 0.00 0.00 75 1013.9
20180918141346 76 50 0.0 3.0 0.00 0.00 0.00 76 1014.0
20180918140851 76 50 0.0 3.0 0.00 0.00 0.00 78 1013.9
20180918140344 76 48 2.0 3.0 0.00 0.00 0.00 81 1014.0
20180918135844 75 47 0.0 5.0 0.00 0.00 0.00 80 1014.0
20180918135334 75 49 1.0 5.0 0.00 0.00 0.00 80 1014.0
20180918134837 76 34 3.0 4.0 0.00 0.00 0.00 80 1013.9
20180918134348 76 43 0.0 0.0 0.00 0.00 0.00 82 1013.9
20180918133832 76 227 0.0 0.0 0.00 0.00 0.00 81 1013.8
20180918132924 75 225 0.0 0.0 0.00 0.00 0.00 85 1013.7
20180918132516 74 225 0.0 0.0 0.00 0.00 0.00 85 1013.8